Regional Weather Roundup
Issued by NWS

Home | Current Version | Previous Version | Text Only | Print | Product List | Glossary On
Versions: 1 2 3 4 5 6 7 8 9 10 11 12 13 14 15 16 17 18 19 20 21 22 23 24 25 26 27 28 29 30 31 32 33 34 35 36 37 38 39 40 41 42 43 44 45 46 47 48 49 50
000
ASUS43 KLOT 251200
RWRIL

ILLINOIS REGIONAL WEATHER ROUNDUP
NATIONAL WEATHER SERVICE CHICAGO/ROMEOVILLE IL
700 AM CDT SAT OCT 25 2014

NOTE: "FAIR" INDICATES FEW OR NO CLOUDS BELOW 12,000 FEET WITH NO
SIGNIFICANT WEATHER AND/OR OBSTRUCTIONS TO VISIBILITY.

* THESE STATIONS ARE NOT UNDER NWS QUALITY CONTROL. THEY ALSO MAY NOT
  REPORT WEATHER SUCH AS PRECIPITATION OR FOG.

ILZ001-002-007-009-015-016-024-251300-
NORTHWEST ILLINOIS

CITY           SKY/WX    TMP DP  RH WIND       PRES   REMARKS
MOLINE         FOG       54  53  97 W7        29.97R VSB 1/2
6HR MIN TEMP:  48; 6HR MAX TEMP:  56;

STERLING*      CLOUDY    57  54  88 W6        29.95R
$$

ILZ003-004-008-010-011-017-018-251300-
NORTH CENTRAL ILLINOIS

CITY           SKY/WX    TMP DP  RH WIND       PRES   REMARKS
ROCKFORD       FOG       52  50  93 CALM      29.95S VSB 1/8
6HR MIN TEMP:  49; 6HR MAX TEMP:  58;

$$

ILZ005-006-012>014-019>023-251300-
NORTHEAST ILLINOIS

CITY           SKY/WX    TMP DP  RH WIND       PRES   REMARKS
CHICAGO-OHARE  PTCLDY    54  52  93 W7        29.90F FOG
6HR MIN TEMP:  54; 6HR MAX TEMP:  59;

CHICAGO-MIDWAY CLOUDY    58  55  90 W5        29.91F FOG
6HR MIN TEMP:  56; 6HR MAX TEMP:  60;

AURORA         PTCLDY    53  50  89 W5        29.93S FOG
6HR MIN TEMP:  49; 6HR MAX TEMP:  59;

WAUKEGAN       CLEAR     54  52  93 VRB6      29.88R FOG
6HR MIN TEMP:  51; 6HR MAX TEMP:  57;

DUPAGE AIRPORT MOCLDY    56  53  90 W6        29.92S FOG
6HR MIN TEMP:  52; 6HR MAX TEMP:  58;

WHEELING       CLEAR     57  53  86 W3        29.92S
6HR MIN TEMP:  57; 6HR MAX TEMP:  61;

NORTHERLY ISL    N/A     57  53  86 W7          N/A
$$

LMZ740>746-251300-
SOUTHERN LAKE MICHIGAN

STATION/POSITION SKY/WX   TEMP    WIND        PRES    VSBY  WAVE
                          AIR SEA DIR/SP/G                  HT/PER
                          (F)     (DEG/KT/KT) (MB)    (MI)  (FT/S)
SOUTHERN BUOY              55 54  270/ 17/ 21 1011.4R         1/ 3
WAUKEGAN HARBOR            57     270/ 11/ 17   N/A
HARRISON CRIB              58     280/ 10/ 13   N/A
BURNHAM HARBOR             57     290/ 10/ 14   N/A
CALUMET HARBOR             56     250/  5/ 12 1011.5F
MICHIGAN CITY              56     210/ 11/ 12   N/A
$$

ILZ025>027-034>036-040-047-049-050-058-095>099-251300-
WEST-CENTRAL ILLINOIS

CITY           SKY/WX    TMP DP  RH WIND       PRES   REMARKS
QUINCY         FOG       55  54  96 W3        30.00S VSB 1/4
$$

ILZ028>032-037-038-041>044-048-051>054-059>061-251300-
CENTRAL ILLINOIS

CITY           SKY/WX    TMP DP  RH WIND       PRES   REMARKS
DECATUR        CLEAR     57  54  89 W8        29.99R
PEORIA         FOG       55  52  89 CALM      29.98S VSB 1/8
6HR MIN TEMP:  52; 6HR MAX TEMP:  58;

SPRINGFIELD    CLOUDY    58  56  93 W3        30.00R
6HR MIN TEMP:  52; 6HR MAX TEMP:  62;

TAYLORVILLE    NOT AVBL
$$

ILZ033-039-045-046-055>057-062-063-251300-
EAST-CENTRAL ILLINOIS

CITY           SKY/WX    TMP DP  RH WIND       PRES   REMARKS
CHAMPAIGN      CLEAR     50  49  96 W6        29.98R FOG
MATTOON        CLEAR     56  53  90 W6        29.98R
$$

ILZ079-100>102-251300-
SOUTHWEST ILLINOIS

CITY           SKY/WX    TMP DP  RH WIND       PRES   REMARKS
BELLEVILLE     CLEAR     52  51  99 SW2       30.00S FOG
CAHOKIA*       CLEAR     55  54  96 SW3       30.01S FOG
$$

ILZ064>066-069>071-074>076-080>082-084>086-088>090-092>094-251300-
SOUTH-CENTRAL ILLINOIS

CITY           SKY/WX    TMP DP  RH WIND       PRES   REMARKS
CARBONDALE     CLOUDY    59  56  89 W5        30.03R
6HR MIN TEMP:  52; 6HR MAX TEMP:  59;

MARION         PTCLDY    57  55  94 SW6       30.04R
MT. VERNON       N/A     52  46  82 CALM      30.02R VSB 1/4
$$

ILZ067-068-072-073-078-083-087-091-251300-
SOUTHEAST ILLINOIS

CITY           SKY/WX    TMP DP  RH WIND       PRES   REMARKS
LAWRENCEVILLE  PTCLDY    54  52  93 S6        30.00R
$$

ABBREVIATIONS USED IN REMARKS
   TC - TEMPERATURE IN CELSIUS
  WCI - WIND CHILL INDEX
   HX - HEAT INDEX
  VSB - VISIBILITY
$$




USA.gov is the U.S. government's official web portal to all federal, state and local government web resources and services.